User: anonymous   Login
Location: Unspecified
(0.0000°N, 0.0000°E)
Time: 22:25:36
(UTC+00:00)
Language:

OPTUS D3 - Orbit

View from above orbital plane
View from above orbital plane
View from above satellite
View from above satellite

Ground track
Ground track

The orbit data is extracted from the following two-line orbital elements,

1 35756U 09044B   16183.48170562 -.00000161  00000-0  00000+0 0  9993
2 35756   0.0377   6.1772 0002967  77.5444 165.6642  1.00272139 25151
Epoch (UTC): 01 July 2016 11:33:39
Eccentricity: 0.0002967
inclination: 0.0377°
perigee height: 35773 km
apogee height: 35798 km
right ascension of ascending node: 6.1772°
argument of perigee: 77.5444°
revolutions per day: 1.00272139
mean anomaly at epoch: 165.6642°
orbit number at epoch: 2515

The dashed part of the orbit path shows where the satellite is in the earth's shadow,  

DLR